Location: City of Moscow
(46.7306°N, 116.9989°W)
Time: 16:42:46
(UTC+00:00)

ARIANE 6 FM1 Upper Stage - Visible Passes

Search period start: 14 February 2026 00:00
Search period end: 24 February 2026 00:00
Orbit: 522 x 609 km, 62.0° (Epoch: 13 February)

Date Brightness Start Highest point End Pass type
(mag) Time Alt. Az. Time Alt. Az. Time Alt. Az.
14 Feb 4.6 01:40:10 10° N 01:42:17 14° NNE 01:44:25 10° NE visible
14 Feb 3.3 03:18:16 10° NW 03:21:14 41° N 03:21:14 41° N visible
15 Feb 4.4 01:39:55 10° NNW 01:42:30 16° NNE 01:45:05 10° ENE visible
15 Feb 2.7 03:18:12 10° NW 03:21:41 63° N 03:21:41 63° N visible
16 Feb 4.1 01:39:42 10° NNW 01:42:41 20° NNE 01:45:39 10° E visible
16 Feb 2.5 03:18:10 10° NW 03:22:08 79° SW 03:22:15 77° SSW visible
17 Feb 3.1 03:18:12 10° NW 03:22:04 53° SW 03:22:58 42° S visible
18 Feb 3.9 03:18:18 10° WNW 03:21:57 36° WSW 03:23:53 22° S visible
19 Feb 4.6 03:18:31 10° WNW 03:21:48 25° WSW 03:25:02 10° S visible
20 Feb 5.3 03:18:56 10° WNW 03:21:36 18° WSW 03:24:17 10° SSW visible
21 Feb 5.6 03:19:48 10° W 03:21:22 12° WSW 03:22:56 10° SW visible
